• In Romania
  • List of Countries
  • For 7 days
  • Water Temperature
  • Satellite Maps
  • Weather Map
  • Weather Widgets
  • user-avatar
    Login

    Hourly Weather Loganiha

    Today, 17 July, Tuesday

    Time Temperature Precipitation Wind Pressure Humidity
    00:00 +19°C° 0 mm 2 mps 745 mmHg 86%
    01:00 +18°C° 0 mm 2 mps 745 mmHg 88%
    02:00 +18°C° 0 mm 2 mps 745 mmHg 96%
    03:00 +18°C° 0 mm 2 mps 745 mmHg 92%
    04:00 +19°C° 0 mm 3 mps 745 mmHg 89%
    05:00 +20°C° 0 mm 3 mps 745 mmHg 85%
    06:00 +21°C° 0 mm 4 mps 745 mmHg 78%
    07:00 +23°C° 0 mm 4 mps 745 mmHg 71%
    08:00 +26°C° 0 mm 5 mps 745 mmHg 63%
    09:00 +27°C° 0 mm 5 mps 745 mmHg 59%
    10:00 +28°C° 0 mm 5 mps 745 mmHg 55%
    11:00 +29°C° 0 mm 6 mps 745 mmHg 51%
    12:00 +29°C° 0 mm 6 mps 744 mmHg 49%
    13:00 +29°C° 0 mm 6 mps 744 mmHg 48%
    14:00 +29°C° 0 mm 6 mps 744 mmHg 46%
    15:00 +29°C° 0 mm 5 mps 744 mmHg 48%
    16:00 +29°C° 0 mm 5 mps 744 mmHg 49%
    17:00 +28°C° 0 mm 4 mps 743 mmHg 51%
    18:00 +26°C° 0 mm 4 mps 743 mmHg 56%
    19:00 +25°C° 0 mm 3 mps 743 mmHg 61%
    20:00 +22°C° 0 mm 3 mps 743 mmHg 66%
    21:00 +22°C° 0 mm 3 mps 743 mmHg 67%
    22:00 +21°C° 0 mm 3 mps 743 mmHg 67%
    23:00 +20°C° 0 mm 3 mps 743 mmHg 68%

    Tomorrow, 18 July, Wednesday

    Time Temperature Precipitation Wind Pressure Humidity
    00:00 +20°C° 0 mm 4 mps 743 mmHg 69%
    01:00 +20°C° 0 mm 4 mps 743 mmHg 69%
    02:00 +20°C° 0 mm 4 mps 743 mmHg 70%
    03:00 +20°C° 0 mm 4 mps 743 mmHg 72%
    04:00 +19°C° 0 mm 4 mps 743 mmHg 74%
    05:00 +19°C° 0 mm 4 mps 743 mmHg 75%
    06:00 +21°C° 0.1 mm 5 mps 742 mmHg 71%
    07:00 +22°C° 0.1 mm 5 mps 742 mmHg 66%
    08:00 +23°C° 0.1 mm 6 mps 742 mmHg 61%
    09:00 +24°C° 0 mm 6 mps 742 mmHg 58%
    10:00 +27°C° 0 mm 6 mps 742 mmHg 55%
    11:00 +28°C° 0 mm 6 mps 742 mmHg 51%
    12:00 +27°C° 0.5 mm 6 mps 741 mmHg 57%
    13:00 +27°C° 0.5 mm 6 mps 741 mmHg 62%
    14:00 +27°C° 0.5 mm 6 mps 741 mmHg 68%
    15:00 +26°C° 0.4 mm 5 mps 741 mmHg 70%
    16:00 +25°C° 0.4 mm 5 mps 741 mmHg 72%
    17:00 +25°C° 0.4 mm 5 mps 741 mmHg 74%
    18:00 +23°C° 0.1 mm 4 mps 741 mmHg 77%
    19:00 +22°C° 0.1 mm 4 mps 741 mmHg 80%
    20:00 +21°C° 0.1 mm 4 mps 741 mmHg 83%
    21:00 +20°C° 0.1 mm 4 mps 741 mmHg 84%
    22:00 +20°C° 0.1 mm 4 mps 741 mmHg 85%
    23:00 +20°C° 0.1 mm 4 mps 741 mmHg 86%

    Day after tomorrow, 19 July, Thursday

    Time Temperature Precipitation Wind Pressure Humidity
    00:00 +19°C° 0 mm 4 mps 741 mmHg 86%
    01:00 +19°C° 0 mm 4 mps 741 mmHg 86%
    02:00 +19°C° 0 mm 4 mps 741 mmHg 86%
    03:00 +19°C° 0 mm 4 mps 741 mmHg 85%
    04:00 +19°C° 0 mm 4 mps 741 mmHg 84%
    05:00 +19°C° 0 mm 4 mps 741 mmHg 83%
    06:00 +20°C° 0.1 mm 5 mps 741 mmHg 80%
    07:00 +21°C° 0.1 mm 5 mps 741 mmHg 77%
    08:00 +22°C° 0.1 mm 5 mps 741 mmHg 74%
    09:00 +23°C° 0 mm 5 mps 741 mmHg 70%
    10:00 +25°C° 0 mm 5 mps 741 mmHg 67%
    11:00 +26°C° 0 mm 5 mps 741 mmHg 63%
    12:00 +26°C° 0.9 mm 5 mps 741 mmHg 70%
    13:00 +26°C° 0.9 mm 5 mps 741 mmHg 77%
    14:00 +25°C° 0.9 mm 5 mps 741 mmHg 85%
    15:00 +25°C° 0.4 mm 5 mps 741 mmHg 82%
    16:00 +25°C° 0.4 mm 5 mps 741 mmHg 80%
    17:00 +25°C° 0.4 mm 5 mps 741 mmHg 77%
    18:00 +23°C° 0.1 mm 4 mps 741 mmHg 80%
    19:00 +22°C° 0.1 mm 4 mps 741 mmHg 83%
    20:00 +22°C° 0.1 mm 3 mps 741 mmHg 86%
    21:00 +21°C° 0.4 mm 3 mps 742 mmHg 89%
    22:00 +21°C° 0.4 mm 3 mps 742 mmHg 91%
    23:00 +20°C° 0.4 mm 4 mps 742 mmHg 93%

    20 July, Friday

    Time Temperature Precipitation Wind Pressure Humidity
    00:00 +20°C° 0 mm 4 mps 742 mmHg 94%
    01:00 +19°C° 0 mm 4 mps 742 mmHg 95%
    02:00 +19°C° 0 mm 3 mps 742 mmHg 96%
    03:00 +19°C° 0 mm 4 mps 742 mmHg 94%
    04:00 +19°C° 0 mm 4 mps 742 mmHg 93%
    05:00 +19°C° 0 mm 4 mps 742 mmHg 92%
    06:00 +20°C° 0 mm 4 mps 742 mmHg 90%
    07:00 +20°C° 0 mm 4 mps 742 mmHg 88%
    08:00 +20°C° 0 mm 4 mps 742 mmHg 86%
    09:00 +21°C° 0 mm 4 mps 742 mmHg 84%
    10:00 +21°C° 0 mm 4 mps 743 mmHg 81%
    11:00 +21°C° 0 mm 4 mps 743 mmHg 79%
    12:00 +22°C° 0 mm 4 mps 743 mmHg 75%
    13:00 +22°C° 0 mm 5 mps 742 mmHg 72%
    14:00 +23°C° 0 mm 5 mps 742 mmHg 69%
    15:00 +23°C° 0 mm 4 mps 742 mmHg 69%
    16:00 +23°C° 0 mm 4 mps 742 mmHg 69%
    17:00 +23°C° 0 mm 4 mps 742 mmHg 70%
    18:00 +22°C° 0 mm 3 mps 742 mmHg 76%
    19:00 +21°C° 0 mm 3 mps 742 mmHg 82%
    20:00 +20°C° 0 mm 2 mps 742 mmHg 88%
    21:00 +19°C° 0 mm 2 mps 742 mmHg 90%
    22:00 +19°C° 0 mm 2 mps 741 mmHg 93%
    23:00 +18°C° 0 mm 2 mps 741 mmHg 95%

    21 July, Saturday

    Time Temperature Precipitation Wind Pressure Humidity
    00:00 +18°C° 0 mm 2 mps 741 mmHg 96%
    01:00 +18°C° 0 mm 2 mps 741 mmHg 96%
    02:00 +18°C° 0 mm 2 mps 741 mmHg 97%
    03:00 +18°C° 0.1 mm 2 mps 741 mmHg 97%
    04:00 +18°C° 0.1 mm 3 mps 741 mmHg 97%
    05:00 +19°C° 0.1 mm 3 mps 741 mmHg 97%
    06:00 +19°C° 0 mm 3 mps 741 mmHg 96%
    07:00 +19°C° 0 mm 3 mps 741 mmHg 95%
    08:00 +20°C° 0 mm 3 mps 741 mmHg 94%
    09:00 +20°C° 0 mm 3 mps 741 mmHg 92%
    10:00 +21°C° 0 mm 3 mps 741 mmHg 89%
    11:00 +22°C° 0 mm 3 mps 741 mmHg 87%
    12:00 +24°C° 0 mm 3 mps 740 mmHg 83%
    13:00 +25°C° 0 mm 3 mps 740 mmHg 80%
    14:00 +26°C° 0 mm 2 mps 740 mmHg 76%
    15:00 +26°C° 0 mm 3 mps 740 mmHg 75%
    16:00 +27°C° 0 mm 3 mps 740 mmHg 74%
    17:00 +28°C° 0 mm 3 mps 740 mmHg 72%
    18:00 +26°C° 0.1 mm 2 mps 740 mmHg 79%
    19:00 +25°C° 0.1 mm 2 mps 739 mmHg 85%
    20:00 +23°C° 0.1 mm 2 mps 739 mmHg 92%
    21:00 +23°C° 0.2 mm 2 mps 739 mmHg 94%
    22:00 +21°C° 0.2 mm 2 mps 739 mmHg 95%
    23:00 +20°C° 0.2 mm 2 mps 739 mmHg 97%

    22 July, Sunday

    Time Temperature Precipitation Wind Pressure Humidity
    00:00 +20°C° 0.4 mm 2 mps 739 mmHg 97%
    01:00 +20°C° 0.4 mm 2 mps 739 mmHg 98%
    02:00 +20°C° 0.4 mm 2 mps 739 mmHg 98%
    03:00 +20°C° 0 mm 2 mps 739 mmHg 97%
    04:00 +20°C° 0 mm 2 mps 739 mmHg 97%
    05:00 +21°C° 0 mm 2 mps 739 mmHg 96%
    06:00 +23°C° 0.1 mm 2 mps 739 mmHg 91%
    07:00 +25°C° 0.1 mm 2 mps 739 mmHg 85%
    08:00 +26°C° 0.1 mm 3 mps 739 mmHg 79%
    09:00 +27°C° 0.2 mm 3 mps 739 mmHg 72%
    10:00 +29°C° 0.2 mm 4 mps 739 mmHg 66%
    11:00 +30°C° 0.2 mm 4 mps 739 mmHg 59%
    12:00 +30°C° 0.5 mm 4 mps 739 mmHg 61%
    13:00 +30°C° 0.5 mm 4 mps 739 mmHg 64%
    14:00 +30°C° 0.5 mm 4 mps 738 mmHg 66%
    15:00 +29°C° 0.8 mm 3 mps 738 mmHg 71%
    16:00 +28°C° 0.8 mm 3 mps 738 mmHg 77%
    17:00 +27°C° 0.8 mm 2 mps 738 mmHg 82%
    18:00 +26°C° 0.6 mm 2 mps 738 mmHg 84%
    19:00 +25°C° 0.6 mm 3 mps 738 mmHg 87%
    20:00 +24°C° 0.6 mm 3 mps 738 mmHg 89%
    21:00 +23°C° 1.3 mm 2 mps 738 mmHg 91%
    22:00 +21°C° 1.3 mm 2 mps 738 mmHg 92%
    23:00 +21°C° 1.3 mm 2 mps 738 mmHg 94%
    Show more